CAPE
1 0 0 0 0 1 0 15 11 5 0 28 12 1 0 0 0 0 0 0 0 0 0 0 0 0 0 0 0 0 0 0 0 0 0 0 0 0 0 0 0 0 0 0
1 2 0 0 0 1 1 33 27 3 1 6 5 7 3 0 0 0 0 0 0 0 0 0 0 0 0 0 0 0 0 0 0 0 0 0 0 0 0 0 0 0 0 0
2 1 2 1 0 0 1 0 1 2 8 0 0 7 5 1 0 0 0 0 0 0 0 0 0 0 0 0 0 0 0 0 0 0 2 0 0 0 0 0 0 0 0 0
0 0 1 1 1 0 11 16 17 1 2 8 8 4 1 2 0 0 0 0 0 0 0 0 0 0 0 0 0 0 0 0 0 0 0 5 0 0 0 0 0 0 0 0
0 0 0 0 1 1 1 0 4 3 0 0 3 1 1 1 1 0 0 0 0 0 0 0 0 0 0 0 0 0 0 0 0 0 0 0 0 0 0 0 0 0 0 0
0 0 0 0 0 3 1 1 0 2 0 0 1 0 1 0 1 0 0 0 0 0 0 0 0 0 0 0 0 0 0 0 0 0 0 2 1 1 1 0 0 0 0 0
0 0 1 0 0 2 0 0 0 0 0 1 0 0 0 0 0 0 0 0 0 0 0 0 0 0 0 0 0 0 0 0 1 1 1 0 0 0 0 0 0 0 0 0
3 1 1 2 1 0 0 0 0 0 0 0 0 3 0 3 28 29 7 3 0 0 0 0 0 1 2 0 0 0 2 2 0 1 2 0 0 0 0 0 0 0 0 0
1 5 5 2 6 14 0 0 0 0 1 0 0 0 9 5 0 6 13 1 0 0 0 0 0 0 0 0 0 0 1 7 2 0 0 0 0 0 0 0 0 0 0 0
4 2 1 4 12 14 15 0 0 0 0 0 0 1 1 1 1 8 0 0 3 0 0 1 1 0 0 0 0 0 0 4 1 0 0 0 0 0 0 0 0 0 0 0
2 6 14 12 6 6 21 2 0 0 0 0 1 1 0 0 1 1 0 0 0 1 2 0 0 1 1 0 0 0 0 3 1 0 3 0 0 0 0 0 0 0 0 0
7 4 5 12 16 10 29 0 0 0 0 0 0 0 0 0 1 1 1 1 0 0 0 0 0 0 0 0 0 0 0 1 0 0 0 0 0 0 0 0 0 0 0 0
0 0 5 7 22 15 29 0 1 0 0 0 1 0 0 0 0 0 0 1 2 3 2 2 2 0 1 0 0 0 0 0 0 0 0 0 0 0 0 0 0 0 0 0
0 1 11 7 23 27 32 2 1 0 0 0 0 0 0 0 0 0 0 0 3 2 1 0 0 0 1 0 0 0 0 0 0 0 0 0 0 0 0 0 0 0 0 0
5 15 17 6 22 33 32 1 0 0 0 0 0 0 0 0 0 2 2 1 1 0 0 0 0 0 0 0 0 0 0 0 0 0 0 0 0 0 0 0 0 0 0 0
9 9 16 14 25 41 2 0 1 0 0 0 0 0 0 1 1 2 6 2 3 0 0 0 0 2 0 0 0 0 0 0 0 0 0 5 0 0 0 0 0 0 0 0
11 11 13 10 6 28 0 0 1 0 0 0 0 0 0 1 3 2 2 6 0 0 0 0 0 0 0 0 0 0 0 0 0 0 3 0 0 0 0 0 0 0 0 0
9 4 7 18 12 4 0 0 3 0 0 0 0 0 0 2 1 0 1 0 0 0 0 0 0 0 0 0 0 0 0 0 0 0 0 0 0 0 0 0 0 0 0 0
15 5 1 0 0 0 1 4 1 0 0 0 0 0 0 0 1 1 1 1 0 0 0 0 0 0 0 0 0 0 0 0 0 0 0 0 0 0 0 0 0 0 0 0
0 0 0 0 0 4 0 0 0 0 0 0 0 0 0 0 1 0 0 0 0 0 0 0 0 0 0 0 0 0 0 0 0 0 0 0 0 0 0 0 0 0 0 0
0 0 0 1 4 0 0 0 0 0 0 0 0 0 0 0 1 0 0 0 0 0 0 0 0 0 0 0 0 0 0 0 0 0 0 0 0 0 0 0 0 0 0 0
0 0 0 0 0 0 0 0 0 0 0 0 1 0 0 0 0 0 0 0 0 0 0 0 0 0 0 0 0 0 0 0 0 0 0 0 1 1 0 0 0 0 0 0
0 0 0 0 0 0 0 0 0 0 0 0 0 0 0 0 0 0 0 0 0 0 0 0 0 0 0 0 0 0 0 0 0 0 0 0 0 0 0 0 0 0 0 0
0 0 0 0 0 0 0 0 0 0 0 0 0 0 0 0 0 0 0 0 0 0 0 0 0 0 0 0 0 0 0 0 0 0 0 0 0 0 0 0 0 0 0 0
0 0 0 0 0 0 0 0 0 0 0 0 0 0 0 0 0 0 0 0 0 0 0 0 0 0 0 0 0 0 0 0 0 0 0 0 0 0 0 0 0 0 0 0
0 0 0 0 0 0 0 0 0 0 0 0 0 0 0 0 0 0 0 0 0 0 0 0 0 1 0 0 0 1 1 0 0 0 0 0 0 0 0 0 0 0 0 0
0 0 0 0 0 0 0 0 0 0 0 0 0 0 0 0 0 0 0 0 0 0 0 1 0 0 0 0 0 0 0 0 0 0 0 0 0 0 0 0 0 0 0 0
CIN
-0 -0 -0 -0 -0 -0 -0 -6 -0 -24 -0 -0 -0 -0 -0 -0 -0 -0 -0 -0 -0 -0 -0 -0 -0 -0 -0 -0 -0 -0 -0 -0 -0 -0 -0 -0 -0 -0 -0 -0 -0 -0 -0 -0
-0 -0 -0 -0 -0 -0 -0 -1 -1 -12 -22 -0 -0 -0 -0 -0 -0 -0 -0 -0 -0 -0 -0 -0 -0 -0 -0 -0 -0 -0 -0 -0 -0 -0 -0 -0 -0 -0 -0 -0 -0 -0 -0 -0
-0 -0 -0 -0 -0 -0 -0 -0 -4 -0 -50 -12 -0 -0 -0 -1 -0 -0 -0 -0 -0 -0 -0 -0 -0 -0 -0 -0 -0 -0 -0 -0 -0 -0 -1 -3 -0 -0 -0 -0 -0 -0 -0 -0
-0 -0 -0 -0 -0 -0 -12 -1 -1 -4 -0 -0 -0 -0 -2 -0 -0 -0 -0 -0 -0 -0 -0 -0 -0 -0 -0 -0 -0 -0 -0 -3 -0 -0 -6 -14 -1 -0 -0 -0 -0 -0 -0 -0
-0 -0 -0 -0 -0 -0 -0 -0 -3 -8 -0 -0 -1 -0 -0 -0 -0 -0 -0 -0 -0 -0 -0 -0 -0 -0 -0 -0 -0 -0 -0 -0 -0 -0 -0 -0 -0 -0 -0 -0 -0 -0 -0 -0
-0 -0 -0 -0 -0 -0 -0 -0 -0 -4 -0 -0 -4 -0 -0 -0 -1 -1 -0 -0 -0 -0 -0 -0 -0 -0 -0 -0 -0 -0 -2 -2 -0 -0 -0 -0 -0 -0 -0 -0 -0 -0 -0 -0
-1 -0 -1 -0 -0 -0 -0 -0 -0 -0 -0 -0 -0 -0 -0 -0 -0 -1 -0 -0 -0 -0 -0 -0 -0 -0 -0 -0 -0 -0 -0 -1 -0 -0 -0 -0 -0 -0 -0 -0 -0 -0 -0 -0
-1 -1 -2 -3 -1 -0 -0 -0 -0 -0 -0 -0 -0 -0 -1 -3 -3 -5 -5 -24 -0 -0 -0 -0 -0 -0 -0 -0 -0 -0 -4 -1 -0 -0 -0 -0 -0 -0 -0 -0 -0 -0 -0 -0
-2 -1 -1 -3 -1 -1 -0 -0 -0 -1 -0 -0 -0 -0 -4 -3 -0 -2 -0 -16 -0 -0 -0 -0 -0 -0 -0 -0 -0 -0 -0 -2 -0 -0 -0 -0 -0 -0 -0 -0 -0 -0 -0 -0
-1 -4 -1 -1 -1 -1 -1 -0 -0 -0 -0 -0 -0 -0 -0 -0 -1 -5 -9 -0 -16 -0 -0 -0 -0 -0 -0 -0 -0 -0 -0 -0 -1 -2 -0 -0 -0 -0 -0 -0 -0 -0 -0 -0
-1 -1 -0 -1 -2 -3 -0 -7 -0 -0 -0 -0 -0 -0 -0 -0 -0 -0 -0 -0 -0 -22 -0 -0 -0 -0 -0 -0 -0 -0 -0 -3 -5 -0 -0 -1 -0 -0 -0 -0 -0 -0 -0 -0
-0 -1 -2 -1 -3 -5 -0 -3 -0 -0 -0 -0 -0 -0 -0 -0 -0 -0 -0 -0 -0 -0 -0 -0 -0 -0 -0 -0 -0 -0 -0 -1 -0 -0 -0 -0 -0 -0 -0 -0 -0 -0 -0 -0
-0 -0 -0 -0 -2 -7 -0 -0 -0 -0 -0 -0 -0 -0 -0 -0 -0 -0 -0 -0 -0 -0 -0 -0 -0 -0 -0 -0 -0 -0 -0 -0 -0 -0 -0 -0 -0 -0 -0 -0 -0 -0 -0 -0
-0 -2 -0 -0 -0 -6 -0 -0 -0 -0 -0 -0 -0 -0 -0 -0 -0 -0 -0 -0 -0 -0 -0 -0 -0 -0 -0 -0 -0 -0 -0 -0 -0 -0 -0 -0 -0 -0 -0 -0 -0 -0 -0 -0
-5 -2 -1 -2 -1 -2 -0 -0 -0 -0 -0 -0 -0 -0 -0 -0 -0 -0 -0 -0 -0 -0 -0 -0 -0 -0 -0 -0 -0 -0 -0 -0 -0 -0 -0 -0 -0 -0 -0 -0 -0 -0 -0 -0
-10 -5 -2 -1 -1 -0 -0 -0 -0 -0 -0 -0 -0 -0 -0 -0 -0 -0 -0 -0 -0 -0 -0 -0 -0 -0 -0 -0 -0 -0 -0 -0 -0 -0 -1 -4 -0 -0 -0 -0 -0 -0 -0 -0
-8 -10 -9 -2 -3 -2 -0 -0 -0 -0 -0 -0 -0 -0 -0 -0 -0 -0 -0 -1 -11 -0 -0 -0 -0 -0 -0 -0 -0 -0 -0 -0 -0 -0 -7 -0 -0 -0 -0 -0 -0 -0 -0 -0
-6 -2 -1 -1 -0 -0 -0 -0 -0 -0 -8 -0 -0 -0 -0 -1 -0 -0 -1 -1 -0 -0 -0 -0 -0 -0 -0 -0 -0 -0 -0 -0 -0 -0 -0 -2 -0 -0 -0 -0 -0 -0 -0 -0
-2 -0 -0 -0 -0 -0 -0 -2 -0 -0 -0 -0 -0 -0 -0 -1 -0 -0 -0 -4 -2 -0 -0 -0 -0 -0 -0 -0 -0 -0 -0 -0 -0 -0 -0 -0 -0 -0 -0 -0 -0 -0 -0 -0
-0 -0 -0 -0 -0 -0 -0 -0 -0 -0 -0 -0 -0 -0 -0 -0 -0 -4 -0 -0 -0 -0 -0 -0 -0 -0 -0 -0 -0 -0 -0 -0 -0 -0 -0 -0 -0 -0 -0 -0 -0 -0 -0 -0
-0 -0 -0 -0 -0 -0 -0 -0 -0 -0 -0 -0 -0 -0 -0 -0 -0 -1 -0 -0 -0 -0 -0 -0 -0 -0 -0 -0 -0 -0 -0 -0 -0 -0 -0 -0 -0 -0 -0 -0 -0 -0 -0 -0
-0 -0 -0 -0 -0 -0 -0 -0 -0 -0 -0 -0 -0 -0 -0 -0 -0 -0 -0 -0 -0 -0 -0 -0 -0 -0 -0 -0 -0 -0 -0 -0 -0 -0 -0 -0 -0 -0 -0 -0 -0 -0 -0 -0
-0 -0 -0 -0 -0 -0 -0 -0 -0 -0 -0 -0 -0 -0 -0 -0 -0 -0 -0 -0 -0 -0 -0 -0 -0 -0 -0 -0 -0 -0 -0 -0 -0 -0 -0 -0 -0 -0 -0 -0 -0 -0 -0 -0
-0 -0 -0 -0 -0 -0 -0 -0 -0 -0 -0 -0 -0 -0 -0 -0 -0 -0 -0 -0 -0 -0 -0 -0 -0 -0 -0 -0 -0 -0 -0 -0 -0 -0 -0 -0 -0 -0 -0 -0 -0 -0 -0 -0
-0 -0 -0 -0 -0 -0 -0 -0 -0 -0 -0 -0 -0 -0 -0 -0 -0 -0 -0 -0 -0 -0 -0 -0 -0 -0 -0 -0 -0 -0 -0 -0 -0 -0 -0 -0 -0 -0 -0 -0 -0 -0 -0 -0
-0 -0 -0 -0 -0 -0 -0 -0 -0 -0 -0 -0 -0 -0 -0 -0 -0 -0 -0 -0 -0 -0 -0 -0 -0 -0 -0 -0 -0 -0 -0 -0 -0 -0 -0 -0 -0 -0 -0 -0 -0 -0 -0 -0
-0 -0 -0 -0 -0 -0 -0 -0 -0 -6 -0 -0 -0 -0 -0 -0 -0 -0 -0 -0 -0 -0 -0 -0 -0 -0 -0 -0 -0 -0 -0 -0 -0 -0 -0 -0 -0 -0 -0 -0 -0 -0 -0 -0
Wind_Speed
36 36 37 41 38 35 33 35 46 28 26 35 38 44 40 33 32 31 32 32 31 30 26 30 29 27 27 21 20 24 24 26 31 27 27 24 26 27 25 28 30 31 37 44
32 34 33 38 32 36 37 41 39 33 33 46 47 43 44 42 37 36 36 35 33 32 35 37 31 29 26 23 22 23 20 28 36 34 29 27 29 27 25 28 33 37 41 31
33 30 31 33 33 31 35 34 37 33 37 42 44 45 44 44 39 42 38 39 37 38 39 36 39 33 27 26 26 27 19 30 35 44 38 29 31 27 27 29 37 39 38 56
34 32 32 33 33 38 35 37 38 26 39 38 44 44 45 41 40 41 36 45 38 38 45 42 42 36 33 30 28 28 31 46 42 41 38 38 42 39 34 33 35 38 42 41
36 35 35 33 34 32 41 38 41 39 37 39 37 37 45 46 40 40 48 45 34 34 43 39 43 37 36 35 32 33 32 46 43 53 42 42 49 41 37 35 36 40 43 47
38 39 40 37 36 32 37 35 31 32 38 36 39 47 52 53 49 49 45 43 42 41 37 35 41 41 37 34 33 35 36 39 40 61 38 38 53 43 38 40 37 38 43 44
30 36 38 38 37 37 35 34 35 42 49 43 47 49 49 48 45 49 41 38 42 39 33 39 41 43 43 44 42 38 42 41 39 53 37 45 43 38 34 35 36 36 41 44
29 28 33 35 32 31 31 30 35 41 48 47 51 52 50 51 46 47 48 44 44 38 39 42 44 46 47 48 45 40 34 36 41 43 46 48 62 41 37 39 55 38 39 39
26 26 25 28 27 27 27 27 26 36 43 49 46 48 50 51 49 50 54 44 38 34 38 42 48 48 43 42 41 37 38 38 40 38 44 51 52 35 25 28 53 28 27 31
26 28 29 29 29 28 28 29 23 33 45 40 39 45 46 41 47 50 44 43 42 37 45 50 50 52 42 49 49 41 38 39 47 50 52 50 44 32 19 41 47 29 25 23
27 29 31 32 30 30 30 31 28 30 37 37 32 34 39 41 42 44 35 39 42 43 49 48 43 46 43 45 46 45 43 43 46 48 50 55 29 27 39 37 31 27 26 26
31 33 34 31 30 32 31 32 28 28 36 34 27 33 32 33 29 36 38 40 38 40 44 43 41 44 43 48 57 41 50 45 46 46 48 36 27 33 30 29 31 30 29 28
29 30 27 30 31 32 32 30 26 28 33 37 38 39 34 30 31 27 37 33 33 34 28 33 33 41 36 51 52 47 43 36 46 44 40 40 35 33 30 30 33 30 30 31
23 14 14 17 23 28 29 29 27 27 28 38 37 30 34 31 29 29 29 32 30 32 33 39 41 46 34 41 38 42 40 34 44 46 41 37 36 35 34 33 34 36 35 35
10 7 9 12 15 19 24 24 27 25 29 31 33 31 30 28 30 32 32 32 34 36 37 37 42 35 34 34 35 41 35 40 43 46 37 37 37 32 30 32 33 34 34 33
6 4 5 9 12 16 14 23 30 25 23 28 34 28 29 28 30 33 35 36 36 37 36 37 34 31 34 38 40 36 33 35 36 40 34 31 33 36 34 35 36 34 29 25
3 3 6 8 11 12 16 19 21 16 15 26 30 33 29 27 27 28 32 32 34 37 40 43 41 39 36 40 46 43 40 38 35 33 34 40 34 38 36 36 34 28 24 21
2 3 6 9 10 4 12 16 8 9 11 17 27 30 29 21 29 32 28 32 33 35 37 34 38 37 39 47 46 48 46 43 42 41 37 41 41 38 36 30 26 23 20 18
8 11 13 3 12 11 13 6 5 10 11 17 19 25 27 14 21 22 26 27 35 30 38 38 35 40 44 43 39 42 42 39 39 38 35 36 40 36 31 27 24 23 21 21
14 5 4 5 12 7 4 14 20 14 17 16 20 15 20 15 18 23 25 23 28 32 31 27 37 44 43 44 41 39 39 37 35 35 37 34 33 30 28 26 23 22 22 21
8 3 6 4 6 12 11 12 14 13 15 15 14 12 15 12 17 18 18 22 22 30 29 31 35 39 35 30 31 32 32 31 31 31 31 28 27 25 23 21 18 16 15 13
8 7 1 8 9 11 12 12 12 12 13 10 12 14 16 14 15 12 13 17 17 27 18 25 33 31 26 28 30 30 27 23 24 21 21 16 15 12 11 10 11 11 10 11
8 10 14 16 15 12 12 13 17 18 13 17 11 13 16 16 14 14 13 15 17 16 20 25 27 28 28 28 26 23 20 17 16 15 12 9 9 9 10 10 10 9 11 12
19 22 22 22 24 23 20 14 10 19 19 9 8 13 14 13 11 12 13 14 15 20 24 28 28 28 26 22 18 13 13 11 11 10 10 9 9 9 9 9 9 10 12 12
20 20 20 21 21 20 19 14 14 15 7 5 8 12 13 13 13 10 14 17 22 19 22 16 20 17 14 13 11 11 11 11 11 11 11 10 10 9 10 11 12 12 13 14
17 18 19 19 19 20 14 10 3 12 5 6 10 14 22 22 21 23 22 20 18 15 5 13 17 15 13 12 11 12 13 13 13 12 12 11 11 11 11 12 14 15 17 18
14 16 16 15 16 17 16 14 15 10 14 20 18 21 21 16 21 21 16 15 10 7 10 15 14 13 12 13 13 13 13 13 12 12 11 11 11 12 14 16 17 18 19 20
Wind_Direction
226 226 230 228 223 217 218 238 243 226 213 237 246 246 250 264 260 261 269 273 269 271 278 282 280 280 286 287 288 285 287 295 287 286 295 296 295 293 291 287 293 292 296 258
235 233 232 228 222 210 227 239 245 224 217 239 244 254 255 257 257 254 262 266 269 273 275 276 279 282 288 282 280 283 286 290 287 290 293 292 291 289 288 288 289 281 287 280
234 231 231 230 226 216 228 230 239 241 230 234 244 249 254 252 250 258 258 267 269 270 271 273 280 282 286 281 282 284 282 282 282 281 289 297 291 286 284 279 280 288 263 264
236 238 241 233 232 228 231 237 244 245 232 233 242 244 252 251 256 251 251 263 256 265 270 271 270 278 282 284 284 280 279 279 282 286 287 288 287 284 282 272 274 277 284 280
241 241 242 239 232 236 234 240 241 246 251 249 246 243 245 248 252 256 257 259 256 260 264 264 274 275 277 277 283 276 277 277 281 280 287 287 286 279 275 275 278 279 286 276
243 241 240 239 238 239 241 243 249 247 249 246 244 249 251 257 256 261 257 256 259 258 256 266 274 277 277 278 272 274 276 277 282 278 289 287 284 285 271 274 271 276 276 271
249 246 246 242 242 242 248 247 249 248 252 251 247 250 253 255 254 258 258 255 254 255 281 275 279 276 274 271 270 271 273 274 276 280 288 278 278 290 288 282 277 275 277 287
250 248 249 247 245 246 254 254 254 254 254 252 252 251 255 258 260 257 258 261 263 268 270 271 275 273 273 268 269 267 263 270 276 277 279 283 282 285 288 288 287 284 283 287
252 249 247 247 244 243 250 260 260 259 255 255 256 257 258 258 258 261 262 265 269 260 265 265 264 271 272 273 275 263 262 262 267 276 279 280 289 301 291 295 287 295 290 291
253 253 251 248 245 241 247 255 256 258 255 261 260 257 259 264 260 262 263 265 264 256 262 262 262 268 268 267 269 273 265 264 262 269 273 281 285 293 298 287 295 305 299 297
259 256 252 248 245 242 244 255 244 252 260 265 266 267 264 265 264 262 269 264 262 258 259 262 267 268 261 266 269 267 268 272 272 271 272 275 285 285 278 293 300 299 301 300
262 258 254 250 244 240 237 255 247 252 258 266 273 268 267 268 276 271 270 267 269 266 265 265 267 265 267 267 267 271 267 267 272 272 277 284 284 285 284 291 294 296 299 302
269 265 256 248 244 239 234 248 241 254 258 264 265 264 270 266 266 271 271 272 273 270 283 276 276 272 270 268 268 270 272 273 272 277 277 279 286 285 291 292 292 295 298 300
279 264 238 225 236 232 226 244 241 247 261 262 267 270 266 268 264 261 265 270 277 278 279 275 274 273 281 275 277 269 272 274 275 279 280 285 285 286 287 289 292 293 295 296
284 252 216 204 208 212 223 239 236 248 253 265 266 268 270 270 265 262 261 264 269 271 274 272 272 279 281 284 282 274 274 276 274 280 284 282 286 289 290 290 290 292 293 295
274 251 214 196 182 183 227 249 241 241 253 264 267 276 272 271 267 265 263 264 267 266 271 272 276 275 275 277 275 279 284 281 281 284 289 288 288 289 292 292 293 293 292 292
273 200 180 170 166 189 232 258 259 224 252 264 267 269 273 274 274 274 269 269 266 267 269 268 268 272 272 275 273 278 281 284 285 289 290 286 288 289 294 293 294 294 292 291
73 127 135 132 139 191 238 273 152 199 256 273 269 273 276 285 273 270 274 272 268 268 268 270 269 272 271 275 276 278 280 282 285 285 284 283 287 290 291 290 289 288 287 288
102 96 103 142 229 242 240 256 169 252 268 271 280 273 276 302 288 286 282 278 273 273 268 271 271 271 272 275 280 282 285 285 287 288 288 286 284 285 287 287 286 281 282 288
102 157 232 257 230 131 201 242 246 265 280 285 281 296 293 304 296 290 287 287 277 274 276 281 274 274 276 279 285 288 286 286 288 286 289 290 289 286 284 285 287 288 288 292
200 265 246 167 194 232 252 258 262 280 285 291 290 291 300 315 301 295 296 286 291 281 280 280 281 282 287 294 295 294 295 293 289 290 293 294 292 286 285 287 292 298 301 301
230 167 211 229 257 270 277 271 277 286 294 317 305 299 283 297 296 315 315 298 301 288 299 289 287 293 301 304 304 305 304 303 300 302 297 301 303 300 297 299 301 306 309 307
205 231 233 233 252 279 282 275 268 272 299 287 309 304 275 277 296 305 312 312 307 314 304 299 301 306 309 310 311 314 319 318 315 318 326 330 326 320 312 313 315 319 318 315
204 183 189 201 207 200 232 288 304 264 254 290 300 273 275 297 311 324 322 318 321 308 304 304 309 313 318 322 327 336 340 351 352 347 345 344 340 334 341 338 333 330 325 326
156 177 160 171 209 231 240 267 267 270 313 327 305 309 311 315 320 340 314 311 300 316 320 341 338 359 21 28 39 36 30 37 42 37 25 17 13 8 4 351 343 337 334 330
138 154 150 152 161 168 198 188 132 304 349 352 330 279 211 204 207 219 204 208 209 211 118 6 358 11 25 45 46 48 54 56 52 50 41 33 28 24 13 355 343 337 333 328
109 146 154 144 175 172 165 151 152 109 129 171 171 188 198 156 211 206 182 193 182 113 36 6 14 31 50 56 58 53 51 47 43 40 32 23 9 1 349 339 336 339 336 333